Missoula, MT

6:23 PM MST on November 22, 2019 (GMT -0700)
Missoula International

Weather History for KMSO - October, 2019

Change the Weather History Date:

Monday, October 14, 2019

  Actual Average Record
Temperature  
Mean Temperature 49 °F 46 °F  
Max Temperature 56 °F 59 °F 82 °F (1918)
Min Temperature 42 °F 33 °F 18 °F (1899)
Degree Days  
Heating Degree Days 16 19  
Month to date heating degree days 332 232  
Since 1 July heating degree days 614 557  
Cooling Degree Days 0 0  
Month to date cooling degree days 0 0  
Year to date cooling degree days 308 332  
Moisture  
Dew Point 31 °F    
Average Humidity 54    
Maximum Humidity 76    
Minimum Humidity 32    
Precipitation  
Precipitation 0.00 in 0.02 in 0.41 in (2001)
Month to date precipitation 0.05 0.39  
Year to date precipitation 13.09 11.59  
Snow  
Snow 0.00 in - - ()
Month to date snowfall T  
Year to date snowfall 42.8  
Since 1 July snowfall 1.7  
Snow Depth 0.00 in    
Sea Level Pressure  
Sea Level Pressure 30.05 in    
Wind  
Wind Speed 8 mph (WNW)    
Max Wind Speed 17 mph    
Max Gust Speed 22 mph    
Visibility 10 miles    
Events      
T = Trace of Precipitation, MM = Missing Value Source: NWS Daily Summary

Daily Weather History Graph

Daily Weather History Graph

Search for Another Location

Airport or City:

Astronomy

Oct. 14, 2019 Rise Set
Actual Time 7:52 AM MDT 6:51 PM MDT
Civil Twilight 7:22 AM MDT 7:21 PM MDT
Nautical Twilight 6:46 AM MDT 7:56 PM MDT
Astronomical Twilight 6:11 AM MDT 8:32 PM MDT
Moon 7:42 PM MDT (10/14) 8:27 AM MDT (10/14)
Length of Visible Light 11h 59m
Length of Day
10h 58m
Full, 99% of the Moon is Illuminated
Oct 14
Full
Oct 21
Last Quarter
Oct 27
New
Nov 4
First Quarter
Nov 12
Full

Hourly Weather History & Observations

Time (MDT) Temp. Windchill Dew Point Humidity Pressure Visibility Wind Dir Wind Speed Gust Speed Precip Events Conditions
12:53 AM 46.9 °F - 37.9 °F 71% 29.89 in 10.0 mi NW 6.9 mph - N/A   Overcast
1:53 AM 48.0 °F - 37.0 °F 66% 29.89 in 10.0 mi NW 8.1 mph - N/A   Overcast
2:53 AM 46.9 °F - 37.9 °F 71% 29.90 in 10.0 mi WNW 4.6 mph - N/A   Overcast
3:53 AM 45.0 °F 43.5 °F 37.9 °F 76% 29.92 in 10.0 mi WSW 3.5 mph - N/A   Overcast
4:53 AM 44.1 °F 41.5 °F 37.9 °F 79% 29.94 in 10.0 mi West 4.6 mph - N/A   Overcast
5:53 AM 45.0 °F 43.5 °F 37.0 °F 74% 29.95 in 10.0 mi NW 3.5 mph - N/A   Overcast
6:53 AM 44.1 °F 42.5 °F 37.0 °F 76% 29.98 in 10.0 mi WNW 3.5 mph - N/A   Overcast
7:53 AM 42.1 °F 39.2 °F 35.1 °F 76% 30.01 in 10.0 mi WNW 4.6 mph - N/A   Overcast
8:53 AM 45.0 °F 40.6 °F 34.0 °F 65% 30.01 in 10.0 mi NNW 8.1 mph - N/A   Overcast
9:53 AM 46.9 °F - 34.0 °F 61% 30.02 in 10.0 mi NW 8.1 mph - N/A   Overcast
10:53 AM 52.0 °F - 33.1 °F 49% 30.03 in 10.0 mi NNW 10.4 mph - N/A   Clear
11:53 AM 52.0 °F - 30.0 °F 43% 30.03 in 10.0 mi NNW 11.5 mph 17.3 mph N/A   Mostly Cloudy
12:53 PM 52.0 °F - 28.0 °F 40% 30.03 in 10.0 mi NW 10.4 mph - N/A   Scattered Clouds
1:53 PM 54.0 °F - 25.0 °F 33% 30.04 in 10.0 mi WNW 12.7 mph - N/A   Mostly Cloudy
2:53 PM 54.0 °F - 28.0 °F 37% 30.04 in 10.0 mi West 9.2 mph - N/A   Overcast
3:53 PM 54.0 °F - 30.0 °F 40% 30.05 in 10.0 mi WSW 11.5 mph - N/A   Scattered Clouds
4:53 PM 55.0 °F - 27.0 °F 34% 30.07 in 10.0 mi West 13.8 mph - N/A   Clear
5:53 PM 53.1 °F - 27.0 °F 37% 30.09 in 10.0 mi West 10.4 mph - N/A   Clear
6:53 PM 46.9 °F - 27.0 °F 46% 30.12 in 10.0 mi WNW 8.1 mph - N/A   Clear
7:53 PM 44.1 °F 41.5 °F 27.0 °F 51% 30.14 in 10.0 mi NNW 4.6 mph - N/A   Clear
8:53 PM 39.9 °F - 27.0 °F 60% 30.16 in 10.0 mi Calm Calm - N/A   Clear
9:53 PM 35.1 °F 32.2 °F 26.1 °F 70% 30.19 in 10.0 mi NNW 3.5 mph - N/A   Clear
10:53 PM 36.0 °F - 26.1 °F 67% 30.22 in 10.0 mi Calm Calm - N/A   Clear
11:53 PM 34.0 °F - 26.1 °F 73% 30.24 in 10.0 mi Calm Calm - N/A   Clear